Location: Newark
(49.8969°N, 3.3422°E)
Time: 23:55:42
(UTC+00:00)

Vanguard 2 Rocket - Pass Details

Date: 20 January 2020
Orbit: 554 x 3327 km, 32.9° (Epoch: 19 February)

Event Time Altitude Azimuth Distance (km) Brightness Sun altitude
Rises 05:54:40 0° 207° (SSW) 3,243 9.6 -15.8°
Reaches altitude 10° 05:58:00 10° 181° (S) 2,649 9.4 -15.2°
Maximum altitude 06:01:20 15° 149° (SSE) 2,685 9.9 -14.7°
Drops below altitude 10° 06:05:31 10° 120° (ESE) 3,504 11.2 -14.1°
Sets 06:11:13 0° 100° (E) 5,144 12.7 -13.2°
